| time (UTC) | temp F | wind direction | speed knots | gust knots | rain 1hr in | rain 24hr in | rain mn in | humidity % | barometer mb |
| 20260505065622 | 58 | 109 | 2.6 | 2.6 | 0.00 | 0.00 | 0.00 | 57 | 1006.0 |
| 20260505065119 | 58 | 136 | 4.3 | 5.2 | 0.00 | 0.00 | 0.00 | 57 | 1006.0 |
| 20260505064616 | 58 | 146 | 1.7 | 1.7 | 0.00 | 0.00 | 0.00 | 56 | 1006.1 |
| 20260505064114 | 59 | 143 | 1.7 | 1.7 | 0.00 | 0.00 | 0.00 | 55 | 1006.1 |
| 20260505063611 | 59 | 154 | 1.7 | 1.7 | 0.00 | 0.00 | 0.00 | 55 | 1006.3 |
| 20260505063107 | 59 | 144 | 2.6 | 2.6 | 0.00 | 0.00 | 0.00 | 55 | 1006.3 |
| 20260505062603 | 58 | 206 | 6.1 | 7.0 | 0.00 | 0.00 | 0.00 | 55 | 1006.2 |
| 20260505062101 | 58 | 185 | 1.7 | 2.6 | 0.00 | 0.00 | 0.00 | 55 | 1006.0 |
| 20260505061558 | 59 | 172 | 0.9 | 1.7 | 0.00 | 0.00 | 0.00 | 55 | 1006.0 |
| 20260505061056 | 59 | 186 | 2.6 | 4.3 | 0.00 | 0.00 | 0.00 | 55 | 1005.7 |
| 20260505060553 | 59 | 166 | 3.5 | 4.3 | 0.00 | 0.00 | 0.00 | 54 | 1005.6 |
| 20260505060050 | 59 | 151 | 2.6 | 2.6 | 0.00 | 0.00 | 0.00 | 54 | 1005.6 |
| 20260505055545 | 59 | 213 | 1.7 | 1.7 | 0.00 | 0.00 | 0.00 | 54 | 1005.6 |
| 20260505055042 | 59 | 166 | 2.6 | 2.6 | 0.00 | 0.00 | 0.00 | 54 | 1005.6 |
| 20260505054539 | 59 | 212 | 1.7 | 1.7 | 0.00 | 0.00 | 0.00 | 53 | 1005.4 |
| 20260505054038 | 59 | 180 | 1.7 | 1.7 | 0.00 | 0.00 | 0.00 | 52 | 1005.3 |
| 20260505053534 | 59 | 193 | 1.7 | 1.7 | 0.00 | 0.00 | 0.00 | 51 | 1005.2 |
| 20260505053031 | 59 | 201 | 0.9 | 1.7 | 0.00 | 0.00 | 0.00 | 51 | 1005.0 |
| 20260505052528 | 59 | 199 | 0.9 | 0.9 | 0.00 | 0.00 | 0.00 | 50 | 1004.8 |
| 20260505052025 | 60 | 199 | 0.0 | 0.9 | 0.00 | 0.00 | 0.00 | 50 | 1004.7 |
| 20260505051522 | 60 | 194 | 0.9 | 0.9 | 0.00 | 0.00 | 0.00 | 50 | 1004.7 |
| 20260505051020 | 60 | 193 | 0.9 | 0.9 | 0.00 | 0.00 | 0.00 | 50 | 1005.0 |
| 20260505050518 | 60 | 196 | 0.9 | 0.9 | 0.00 | 0.00 | 0.00 | 48 | 1005.0 |
| 20260505041445 | 63 | 172 | 2.6 | 2.6 | 0.00 | 0.00 | 0.00 | 44 | 1004.3 |
| 20260505040943 | 63 | 164 | 2.6 | 4.3 | 0.00 | 0.00 | 0.00 | 44 | 1004.3 |
| 20260505040440 | 63 | 131 | 2.6 | 2.6 | 0.00 | 0.00 | 0.00 | 43 | 1004.0 |
| 20260505035937 | 63 | 173 | 1.7 | 2.6 | 0.00 | 0.00 | 0.00 | 41 | 1003.8 |
| 20260505035433 | 63 | 132 | 0.9 | 0.9 | 0.00 | 0.00 | 0.00 | 41 | 1004.0 |
| 20260505034931 | 63 | 169 | 0.9 | 1.7 | 0.00 | 0.00 | 0.00 | 41 | 1003.7 |
| 20260505034427 | 64 | 149 | 0.9 | 1.7 | 0.00 | 0.00 | 0.00 | 41 | 1003.8 |
| 20260505033924 | 64 | 198 | 0.9 | 0.9 | 0.00 | 0.00 | 0.00 | 41 | 1003.7 |
| 20260505033421 | 64 | 192 | 0.9 | 0.9 | 0.00 | 0.00 | 0.00 | 40 | 1003.7 |
| 20260505032919 | 64 | 202 | 0.9 | 0.9 | 0.00 | 0.00 | 0.00 | 39 | 1003.5 |
| 20260505032416 | 64 | 203 | 0.0 | 0.9 | 0.00 | 0.00 | 0.00 | 38 | 1003.3 |
| 20260505031912 | 64 | 204 | 0.0 | 0.0 | 0.00 | 0.00 | 0.00 | 38 | 1003.3 |
| 20260505031409 | 64 | 204 | 0.0 | 0.0 | 0.00 | 0.00 | 0.00 | 37 | 1003.1 |
| 20260505030906 | 64 | 203 | 0.0 | 0.0 | 0.00 | 0.00 | 0.00 | 37 | 1003.3 |
| 20260505030402 | 65 | 203 | 0.0 | 0.0 | 0.00 | 0.00 | 0.00 | 36 | 1003.0 |
| 20260505025857 | 65 | 204 | 0.9 | 1.7 | 0.00 | 0.00 | 0.00 | 35 | 1003.0 |
| 20260505025355 | 65 | 208 | 0.9 | 0.9 | 0.00 | 0.00 | 0.00 | 35 | 1002.7 |
| 20260505024854 | 65 | 215 | 0.9 | 0.9 | 0.00 | 0.00 | 0.00 | 35 | 1002.9 |
| 20260505024351 | 66 | 216 | 0.0 | 0.9 | 0.00 | 0.00 | 0.00 | 35 | 1002.7 |
| 20260505023848 | 66 | 218 | 1.7 | 1.7 | 0.00 | 0.00 | 0.00 | 34 | 1002.6 |
| 20260505023345 | 66 | 210 | 0.9 | 0.9 | 0.00 | 0.00 | 0.00 | 34 | 1002.6 |
| 20260505022842 | 67 | 208 | 0.9 | 1.7 | 0.00 | 0.00 | 0.00 | 33 | 1002.6 |
| 20260505022339 | 67 | 182 | 0.9 | 0.9 | 0.00 | 0.00 | 0.00 | 33 | 1002.8 |
| 20260505021836 | 67 | 201 | 0.9 | 0.9 | 0.00 | 0.00 | 0.00 | 33 | 1002.7 |
| 20260505021333 | 68 | 213 | 0.9 | 0.9 | 0.00 | 0.00 | 0.00 | 33 | 1002.7 |
| 20260505020828 | 68 | 196 | 1.7 | 1.7 | 0.00 | 0.00 | 0.00 | 32 | 1002.8 |
| 20260505020324 | 69 | 225 | 4.3 | 5.2 | 0.00 | 0.00 | 0.00 | 32 | 1002.7 |
| 20260505015821 | 69 | 185 | 0.9 | 0.9 | 0.00 | 0.00 | 0.00 | 31 | 1002.6 |
| 20260505015318 | 70 | 184 | 0.9 | 1.7 | 0.00 | 0.00 | 0.00 | 31 | 1002.7 |
| 20260505014816 | 70 | 192 | 2.6 | 2.6 | 0.00 | 0.00 | 0.00 | 30 | 1002.6 |
| 20260505014313 | 71 | 173 | 1.7 | 2.6 | 0.00 | 0.00 | 0.00 | 29 | 1002.2 |
| 20260505013809 | 71 | 187 | 0.9 | 1.7 | 0.00 | 0.00 | 0.00 | 29 | 1002.2 |
| 20260505013306 | 71 | 199 | 2.6 | 2.6 | 0.00 | 0.00 | 0.00 | 29 | 1002.3 |
| 20260505012805 | 71 | 193 | 0.9 | 1.7 | 0.00 | 0.00 | 0.00 | 28 | 1002.6 |
| 20260505012304 | 71 | 196 | 1.7 | 1.7 | 0.00 | 0.00 | 0.00 | 27 | 1002.3 |
| 20260505011758 | 71 | 164 | 1.7 | 2.6 | 0.00 | 0.00 | 0.00 | 27 | 1002.6 |
| 20260505011255 | 72 | 183 | 1.7 | 2.6 | 0.00 | 0.00 | 0.00 | 27 | 1002.7 |
| 20260505010750 | 72 | 138 | 2.6 | 4.3 | 0.00 | 0.00 | 0.00 | 27 | 1002.6 |
| 20260505010247 | 72 | 198 | 1.7 | 1.7 | 0.00 | 0.00 | 0.00 | 28 | 1002.8 |
| 20260505005743 | 73 | 197 | 1.7 | 1.7 | 0.00 | 0.00 | 0.00 | 28 | 1002.7 |
| 20260505005240 | 72 | 206 | 1.7 | 1.7 | 0.00 | 0.00 | 0.00 | 27 | 1002.7 |
| 20260505004737 | 72 | 206 | 2.6 | 2.6 | 0.00 | 0.00 | 0.00 | 28 | 1002.9 |
| 20260505004233 | 72 | 211 | 2.6 | 2.6 | 0.00 | 0.00 | 0.00 | 28 | 1002.8 |
| 20260505003731 | 72 | 208 | 5.2 | 6.1 | 0.00 | 0.00 | 0.00 | 28 | 1003.0 |
| 20260505003229 | 72 | 221 | 0.9 | 1.7 | 0.00 | 0.00 | 0.00 | 28 | 1003.0 |
| 20260505002725 | 72 | 121 | 3.5 | 6.1 | 0.00 | 0.00 | 0.00 | 28 | 1002.9 |
| 20260505002222 | 72 | 148 | 4.3 | 7.0 | 0.00 | 0.00 | 0.00 | 27 | 1003.1 |
| 20260505001720 | 72 | 158 | 3.5 | 6.1 | 0.00 | 0.00 | 0.00 | 29 | 1003.1 |
| 20260505001217 | 72 | 215 | 6.1 | 7.0 | 0.00 | 0.00 | 0.00 | 29 | 1003.0 |
| 20260505000714 | 72 | 213 | 5.2 | 7.0 | 0.00 | 0.00 | 0.00 | 29 | 1003.0 |
| 20260505000212 | 72 | 155 | 1.7 | 1.7 | 0.00 | 0.00 | 0.00 | 29 | 1003.2 |
| 20260504235708 | 73 | 216 | 9.6 | 13.0 | 0.00 | 0.00 | 0.00 | 25 | 1003.1 |
| 20260504235204 | 72 | 187 | 6.1 | 7.8 | 0.00 | 0.00 | 0.00 | 26 | 1003.1 |
| 20260504234702 | 72 | 242 | 10.4 | 14.8 | 0.00 | 0.00 | 0.00 | 27 | 1003.3 |
| 20260504234159 | 73 | 208 | 7.8 | 11.3 | 0.00 | 0.00 | 0.00 | 27 | 1003.2 |
| 20260504233654 | 73 | 209 | 8.7 | 11.3 | 0.00 | 0.00 | 0.00 | 25 | 1003.1 |
| 20260504233150 | 73 | 228 | 3.5 | 4.3 | 0.00 | 0.00 | 0.00 | 26 | 1003.2 |
| 20260504232648 | 73 | 205 | 6.1 | 7.0 | 0.00 | 0.00 | 0.00 | 27 | 1003.1 |
| 20260504232145 | 73 | 193 | 4.3 | 5.2 | 0.00 | 0.00 | 0.00 | 25 | 1003.0 |
| 20260504231642 | 73 | 215 | 4.3 | 6.1 | 0.00 | 0.00 | 0.00 | 24 | 1003.1 |
| 20260504231138 | 73 | 256 | 2.6 | 5.2 | 0.00 | 0.00 | 0.00 | 26 | 1003.0 |
| 20260504230634 | 73 | 215 | 5.2 | 11.3 | 0.00 | 0.00 | 0.00 | 24 | 1003.2 |
| 20260504230133 | 73 | 225 | 2.6 | 2.6 | 0.00 | 0.00 | 0.00 | 25 | 1003.2 |
| 20260504225631 | 73 | 243 | 3.5 | 4.3 | 0.00 | 0.00 | 0.00 | 27 | 1003.2 |
| 20260504225127 | 73 | 252 | 7.0 | 7.8 | 0.00 | 0.00 | 0.00 | 27 | 1003.2 |
| 20260504224624 | 73 | 206 | 7.8 | 9.6 | 0.00 | 0.00 | 0.00 | 27 | 1003.2 |
| 20260504224121 | 74 | 224 | 5.2 | 7.0 | 0.00 | 0.00 | 0.00 | 27 | 1003.3 |
| 20260504223618 | 73 | 211 | 3.5 | 5.2 | 0.00 | 0.00 | 0.00 | 29 | 1003.3 |
| 20260504223114 | 73 | 217 | 3.5 | 4.3 | 0.00 | 0.00 | 0.00 | 27 | 1003.5 |
| 20260504222611 | 73 | 270 | 4.3 | 6.1 | 0.00 | 0.00 | 0.00 | 27 | 1003.1 |
| 20260504222108 | 73 | 205 | 6.1 | 11.3 | 0.00 | 0.00 | 0.00 | 28 | 1003.1 |
| 20260504221605 | 75 | 201 | 2.6 | 5.2 | 0.00 | 0.00 | 0.00 | 28 | 1003.3 |
| 20260504221102 | 75 | 172 | 6.1 | 7.8 | 0.00 | 0.00 | 0.00 | 21 | 1003.3 |
| 20260504220558 | 75 | 278 | 3.5 | 4.3 | 0.00 | 0.00 | 0.00 | 23 | 1003.3 |
| 20260504220055 | 75 | 238 | 2.6 | 2.6 | 0.00 | 0.00 | 0.00 | 23 | 1003.1 |
| 20260504215552 | 74 | 286 | 2.6 | 2.6 | 0.00 | 0.00 | 0.00 | 23 | 1003.2 |
| 20260504215050 | 76 | 275 | 1.7 | 1.7 | 0.00 | 0.00 | 0.00 | 23 | 1003.2 |
| 20260504214545 | 75 | 222 | 3.5 | 4.3 | 0.00 | 0.00 | 0.00 | 25 | 1003.3 |
| 20260504214042 | 76 | 257 | 1.7 | 1.7 | 0.00 | 0.00 | 0.00 | 23 | 1003.6 |
| 20260504213538 | 76 | 198 | 1.7 | 2.6 | 0.00 | 0.00 | 0.00 | 23 | 1003.7 |
| 20260504213035 | 77 | 252 | 3.5 | 4.3 | 0.00 | 0.00 | 0.00 | 21 | 1003.8 |
| 20260504212531 | 77 | 267 | 2.6 | 5.2 | 0.00 | 0.00 | 0.00 | 22 | 1003.8 |
| 20260504212029 | 76 | 208 | 2.6 | 2.6 | 0.00 | 0.00 | 0.00 | 21 | 1003.9 |
| 20260504211525 | 76 | 227 | 4.3 | 5.2 | 0.00 | 0.00 | 0.00 | 20 | 1004.0 |
| 20260504211022 | 75 | 275 | 2.6 | 2.6 | 0.00 | 0.00 | 0.00 | 22 | 1003.9 |
| 20260504210519 | 77 | 304 | 2.6 | 2.6 | 0.00 | 0.00 | 0.00 | 21 | 1004.3 |
| 20260504210016 | 75 | 247 | 3.5 | 5.2 | 0.00 | 0.00 | 0.00 | 24 | 1003.9 |
| 20260504205514 | 74 | 284 | 0.9 | 0.9 | 0.00 | 0.00 | 0.00 | 23 | 1004.1 |
| 20260504205012 | 75 | 262 | 0.9 | 1.7 | 0.00 | 0.00 | 0.00 | 24 | 1004.1 |
| 20260504204510 | 75 | 331 | 3.5 | 5.2 | 0.00 | 0.00 | 0.00 | 23 | 1004.3 |
| 20260504204008 | 75 | 312 | 2.6 | 2.6 | 0.00 | 0.00 | 0.00 | 22 | 1004.5 |
| 20260504203506 | 76 | 259 | 0.9 | 1.7 | 0.00 | 0.00 | 0.00 | 21 | 1004.4 |
| 20260504203003 | 75 | 294 | 1.7 | 1.7 | 0.00 | 0.00 | 0.00 | 23 | 1004.4 |
| 20260504202458 | 76 | 210 | 2.6 | 4.3 | 0.00 | 0.00 | 0.00 | 24 | 1004.7 |
| 20260504201955 | 74 | 259 | 0.0 | 0.9 | 0.00 | 0.00 | 0.00 | 22 | 1004.7 |
| 20260504201453 | 74 | 269 | 4.3 | 6.1 | 0.00 | 0.00 | 0.00 | 22 | 1004.6 |
| 20260504200950 | 74 | 259 | 4.3 | 5.2 | 0.00 | 0.00 | 0.00 | 23 | 1004.8 |
| 20260504200447 | 73 | 305 | 4.3 | 4.3 | 0.00 | 0.00 | 0.00 | 23 | 1004.8 |
| 20260504195943 | 73 | 305 | 3.5 | 4.3 | 0.00 | 0.00 | 0.00 | 23 | 1004.6 |
| 20260504195439 | 75 | 303 | 4.3 | 5.2 | 0.00 | 0.00 | 0.00 | 24 | 1004.8 |
| 20260504194936 | 74 | 318 | 4.3 | 5.2 | 0.00 | 0.00 | 0.00 | 24 | 1004.7 |
| 20260504194432 | 73 | 293 | 2.6 | 4.3 | 0.00 | 0.00 | 0.00 | 26 | 1004.7 |
| 20260504193928 | 74 | 272 | 3.5 | 4.3 | 0.00 | 0.00 | 0.00 | 27 | 1005.0 |
| 20260504193425 | 75 | 260 | 4.3 | 6.1 | 0.00 | 0.00 | 0.00 | 27 | 1005.0 |
| 20260504192924 | 73 | 302 | 2.6 | 5.2 | 0.00 | 0.00 | 0.00 | 27 | 1004.9 |
| 20260504192421 | 74 | 316 | 6.1 | 7.8 | 0.00 | 0.00 | 0.00 | 27 | 1004.9 |
| 20260504191920 | 74 | 264 | 2.6 | 2.6 | 0.00 | 0.00 | 0.00 | 25 | 1004.9 |
| 20260504191418 | 75 | 273 | 1.7 | 1.7 | 0.00 | 0.00 | 0.00 | 29 | 1005.3 |
| 20260504190913 | 74 | 306 | 6.1 | 6.1 | 0.00 | 0.00 | 0.00 | 26 | 1005.0 |
| 20260504190409 | 74 | 304 | 5.2 | 8.7 | 0.00 | 0.00 | 0.00 | 27 | 1005.2 |
| 20260504185906 | 74 | 210 | 1.7 | 2.6 | 0.00 | 0.00 | 0.00 | 25 | 1005.4 |
| 20260504185403 | 74 | 245 | 2.6 | 2.6 | 0.00 | 0.00 | 0.00 | 25 | 1005.3 |
| 20260504184858 | 74 | 271 | 2.6 | 2.6 | 0.00 | 0.00 | 0.00 | 26 | 1005.5 |
| 20260504184354 | 73 | 242 | 1.7 | 1.7 | 0.00 | 0.00 | 0.00 | 24 | 1005.6 |
| 20260504183850 | 73 | 209 | 2.6 | 2.6 | 0.00 | 0.00 | 0.00 | 25 | 1005.3 |
| 20260504183348 | 74 | 235 | 0.9 | 0.9 | 0.00 | 0.00 | 0.00 | 26 | 1005.4 |
| 20260504182845 | 72 | 308 | 2.6 | 2.6 | 0.00 | 0.00 | 0.00 | 25 | 1005.7 |
| 20260504182343 | 73 | 305 | 5.2 | 7.0 | 0.00 | 0.00 | 0.00 | 27 | 1005.6 |
| 20260504181839 | 72 | 248 | 2.6 | 2.6 | 0.00 | 0.00 | 0.00 | 26 | 1005.7 |
| 20260504181337 | 73 | 263 | 4.3 | 5.2 | 0.00 | 0.00 | 0.00 | 26 | 1005.7 |
| 20260504180836 | 73 | 161 | 0.0 | 0.9 | 0.00 | 0.00 | 0.00 | 28 | 1005.7 |
| 20260504180334 | 72 | 162 | 1.7 | 1.7 | 0.00 | 0.00 | 0.00 | 27 | 1005.6 |
| 20260504175832 | 72 | 92 | 0.9 | 1.7 | 0.00 | 0.00 | 0.00 | 29 | 1005.8 |
| 20260504175328 | 72 | 177 | 2.6 | 2.6 | 0.00 | 0.00 | 0.00 | 28 | 1006.0 |
| 20260504174826 | 72 | 135 | 2.6 | 4.3 | 0.00 | 0.00 | 0.00 | 28 | 1006.3 |
| 20260504174323 | 72 | 216 | 2.6 | 6.1 | 0.00 | 0.00 | 0.00 | 29 | 1006.0 |
| 20260504173820 | 71 | 153 | 0.9 | 1.7 | 0.00 | 0.00 | 0.00 | 28 | 1006.1 |
| 20260504173317 | 72 | 276 | 2.6 | 2.6 | 0.00 | 0.00 | 0.00 | 30 | 1006.3 |
| 20260504172814 | 71 | 186 | 0.0 | 0.9 | 0.00 | 0.00 | 0.00 | 29 | 1006.1 |
| 20260504172311 | 71 | 95 | 1.7 | 1.7 | 0.00 | 0.00 | 0.00 | 29 | 1006.4 |
| 20260504171807 | 72 | 97 | 3.5 | 5.2 | 0.00 | 0.00 | 0.00 | 29 | 1006.1 |
| 20260504171304 | 72 | 172 | 0.0 | 0.9 | 0.00 | 0.00 | 0.00 | 29 | 1006.3 |
| 20260504170801 | 71 | 224 | 0.9 | 0.9 | 0.00 | 0.00 | 0.00 | 31 | 1006.2 |
| 20260504170258 | 69 | 218 | 0.0 | 0.0 | 0.00 | 0.00 | 0.00 | 30 | 1006.4 |
| 20260504160216 | 68 | 139 | 3.5 | 5.2 | 0.00 | 0.00 | 0.00 | 35 | 1006.3 |
| 20260504151144 | 66 | 150 | 1.7 | 1.7 | 0.00 | 0.00 | 0.00 | 38 | 1006.7 |
| 20260504150642 | 66 | 132 | 2.6 | 4.3 | 0.00 | 0.00 | 0.00 | 38 | 1006.6 |
| 20260504150138 | 66 | 175 | 0.9 | 0.9 | 0.00 | 0.00 | 0.00 | 37 | 1006.7 |
| 20260504141107 | 64 | 139 | 3.5 | 4.3 | 0.00 | 0.00 | 0.00 | 39 | 1007.1 |
| 20260504140604 | 63 | 166 | 0.9 | 1.7 | 0.00 | 0.00 | 0.00 | 40 | 1006.6 |
| 20260504130528 | 59 | 140 | 1.7 | 2.6 | 0.00 | 0.00 | 0.00 | 39 | 1006.9 |
| 20260504110415 | 56 | 134 | 0.0 | 0.9 | 0.00 | 0.00 | 0.00 | 43 | 1006.7 |
| 20260504100332 | 55 | 168 | 0.0 | 0.0 | 0.00 | 0.00 | 0.00 | 43 | 1006.5 |
| 20260504081726 | 54 | 306 | 0.0 | 0.0 | 0.00 | 0.00 | 0.00 | 39 | 1005.6 |
| 20260504081222 | 54 | 306 | 0.0 | 0.0 | 0.00 | 0.00 | 0.00 | 38 | 1005.6 |
| 20260504080718 | 55 | 306 | 0.0 | 0.0 | 0.00 | 0.00 | 0.00 | 36 | 1005.6 |
| 20260504080215 | 56 | 292 | 0.9 | 0.9 | 0.00 | 0.00 | 0.00 | 36 | 1005.6 |
| 20260504070142 | 57 | 87 | 0.9 | 0.9 | 0.00 | 0.00 | 0.00 | 33 | 1005.8 |